Back to catalog

DMSP 5D-2 F11 DEB

AliveSSO
NORAD 29071·DEBRIS·🇺🇸 United States

Launched Nov 28, 1991 from Vandenberg Space Force Base

Loading…

Next Passes (next 24 hours)

TLE

FreshSource: Space-Track

Epoch: Sep 12, 2026, 10:54 UTC

1 29071U 91082BS  26255.45446228  .00002944  00000-0  95482-3 0  9994
2 29071  98.9418 332.1134 0068926 290.2881  69.0906 14.38392137144200

Track DMSP 5D-2 F11 DEB in real time with AllMySat

Download on the App Store